Regional Weather Roundup
Issued by NWS Jackson, KY

Home | Current Version | Previous Version | Text Only | Print | Product List | Glossary Off
Versions: 1 2 3 4 5 6 7 8 9 10 11 12 13 14 15 16 17 18 19 20 21 22 23 24 25 26 27 28

000
ASUS43 KJKL 202010
RWRJKL

EAST KENTUCKY HOURLY WEATHER ROUNDUP
NATIONAL WEATHER SERVICE JACKSON KY
400 PM EDT FRI APR 20 2018

NOTE: "FAIR" INDICATES FEW OR NO CLOUDS BELOW 12,000 FEET WITH
NO SIGNIFICANT WEATHER AND/OR OBSTRUCTIONS TO VISIBILITY.

* THESE REPORTS ARE NOT UNDER NWS QUALITY CONTROL AND MAY NOT
  REPORT WEATHER SUCH AS PRECIPITATION AND FOG.

KYZ079-080-083-085-087-088-110-112-115-119-120-202100
...EASTERN KENTUCKY...

CITY           SKY/WX    TMP DP  RH WIND       PRES   REMARKS
JACKSON          N/A     60  21  22 VRB3      30.37F
LONDON           N/A     61  24  24 VRB3      30.37F
SOMERSET*        N/A     61  28  29 NE5G16    30.39F
MONTICELLO*      N/A     61  30  31 N13G24    30.39F
WILLIAMSBURG*    N/A     61  25  25 N7        30.36F
MIDDLESBORO*     N/A     65  25  22 W3        30.34F
HARLAN APT*      N/A     63  19  18 NE3       30.35F
PIKE CO APT*     N/A     57  21  24 NE8       30.37F
BIG SANDY APT*   N/A     61  20  21 N3        30.38F
MOREHEAD APT*    N/A     61  18  18 VRB6G13   30.40F
ASHLAND*         N/A     58  25  28 CALM      30.41F
$$

KYZ035-036-041-042-044-050-067-078-099-202100
...CENTRAL KENTUCKY...

CITY           SKY/WX    TMP DP  RH WIND       PRES   REMARKS
MT STERLING*     N/A     57  28  33 NE6       30.42F
FLEMING/MASON*   N/A     58  22  25 N7        30.42F
DANVILLE*        N/A     59  30  33 CALM      30.41F
LEXINGTON        N/A     60  27  28 NE8       30.41F
FRANKFORT        N/A     61  24  24 NE8       30.40F
LOUISVILLE       N/A     63  26  24 NE9       30.41F
GLASGOW*         N/A     63  29  28 NE8       30.38F
BOWLING GREEN    N/A     64  29  26 MISG      30.39F
$$

KYZ091>093-OHZ055-061-077-WVZ005-015-034-035-042-202100
...SOUTHERN OHIO/WEST VIRGINIA...

CITY           SKY/WX    TMP DP  RH WIND       PRES   REMARKS
COVINGTON        N/A     59  23  25 N8        30.43F
COLUMBUS         N/A     56  20  24 N8        30.42F
DAYTON           N/A     56  23  27 CALM      30.45F
WILMINGTON       N/A     58  28  32 VRB3      30.43F
HUNTINGTON       N/A     57  19  22 NE8       30.40F
CHARLESTON       N/A     58  20  22 NW7       30.39F
PINEVILLE*       N/A     58  13  17 MISG      30.40F
BECKLEY          N/A     53  17  24 N10       30.35F
BLUEFIELD        N/A     53  12  19 NW9       30.33F
LOGAN CO APT*    N/A     57  16  19 CALM      30.37F
$$

VAZ002-007-008-TNZ017-027-036-066-071-202100
...SOUTHWEST VIRGINIA/EAST TENNESSEE...

CITY           SKY/WX    TMP DP  RH WIND       PRES   REMARKS
WISE*            N/A     55  23  28 NE5       30.36F
JONESVILLE*      N/A     63  25  23 CALM      30.35F
ABINGDON*        N/A     61  23  23 CALM      30.34F
BRISTOL          N/A     62  23  22 CALM      30.33F
MORRISTOWN*    CLEAR     61  28  29 VRB3      30.33F
SEVIERVILLE*   CLEAR     63  27  25 NE13      30.32F
KNOXVILLE        N/A     65  30  27 NE14      30.31F
LAFOLLETTE*    CLEAR     64  32  29 SW8       30.37F
OAK RIDGE        N/A     65  28  24 VRB7      30.34F
CROSSVILLE       N/A     64  23  21 N6        30.34F
NASHVILLE        N/A     67  32  27 N10       30.36F
$$

...KEY TO REMARKS...
VSB - VISIBILITY IN MILES
WCI - WIND CHILL INDEX
HX  - HEAT INDEX

$$




USA.gov is the U.S. government's official web portal to all federal, state and local government web resources and services.